Regional Weather Roundup
Issued by NWS

Home | Current Version | Previous Version | Graphics & Text | Print | Product List | Glossary On
Versions: 1 2 3 4 5 6 7 8 9 10 11 12 13 14 15 16 17 18 19 20 21 22 23 24 25 26 27 28 29 30 31 32 33 34 35 36 37 38 39 40 41 42 43 44 45 46 47 48 49 50
653
ASUS43 KFSD 082202
RWRSD

WEATHER ROUNDUP FOR SOUTH DAKOTA
NATIONAL WEATHER SERVICE SIOUX FALLS SD
400 PM CST MON FEB 08 2016

NOTE: "FAIR" INDICATES FEW OR NO CLOUDS BELOW 12,000 FEET WITH NO
SIGNIFICANT WEATHER AND/OR OBSTRUCTIONS TO VISIBILITY.


SDZ001>005-009-010-012>017-082300-
NORTHWEST AND NORTH CENTRAL SOUTH DAKOTA

CITY           SKY/WX    TMP DP  RH WIND       PRES   REMARKS
BUFFALO          N/A     40   9  28 NW18      30.19F
FAITH            N/A     37   9  31 NW24      30.22S
MOBRIDGE       MOSUNNY   36  18  48 NW20G32   30.18F
$$

SDZ012>016-024>037-041>051-057-063-072>074-082300-
SOUTHWEST AND SOUTH CENTRAL SOUTH DAKOTA

CITY           SKY/WX    TMP DP  RH WIND       PRES   REMARKS
RAPID CTY ARPT CLOUDY    41   9  26 N20G35    30.24F
PIERRE         MOSUNNY   36  15  42 NW22G33   30.22S
CUSTER         CLOUDY    38  19  46 N8G20     30.21F
ELLSWORTH AFB  CLOUDY    41  10  27 NW21G29   30.23F
PHILIP         MOSUNNY   40  17  39 NW16      30.25F
PINE RIDGE     CLOUDY    39   7  26 NW15      30.27F
WINNER         FAIR      36  17  46 NW24G33   30.22S
$$

SDZ004>011-016>023-039-040-082300-
NORTHEAST SOUTH DAKOTA

CITY           SKY/WX    TMP DP  RH WIND       PRES   REMARKS
ABERDEEN       MOSUNNY   33   9  36 N29G40    30.17R WCI  19
WATERTOWN      CLOUDY    21  12  68 N26G36    30.08S WCI   4
BROOKINGS      FLURRIES  21  13  71 NW28G38   30.06S WCI   3
SISSETON         N/A     19  12  74 N29       30.14R WCI   0
$$

SDZ017-020-022-023-036>040-048>070-082300-
SOUTHEAST SOUTH DAKOTA

CITY           SKY/WX    TMP DP  RH WIND       PRES   REMARKS
SIOUX FALLS    PTSUNNY   25  14  63 NW26G32   30.09S WCI   9
HURON          MOSUNNY   33  16  49 N20       30.15S WCI  21
MITCHELL       CLOUDY    33  17  51 NW22G32   30.16S WCI  21
YANKTON        SUNNY    N/A N/A N/A NW32G38   30.12S
$$

ABBREVIATIONS USED IN REMARKS
   TC - TEMPERATURE IN CELSIUS
  WCI - WIND CHILL INDEX
   HX - HEAT INDEX
  VSB - VISIBILITY





USA.gov is the U.S. government's official web portal to all federal, state and local government web resources and services.